Location: Lecco
(45.8566°N, 9.3977°E)
Time: 10:32:10
(UTC+02:00)

Vanguard 2 Rocket - All Passes

Search period start: 14 August 2020 00:00
Search period end: 24 August 2020 00:00
Orbit: 556 x 3324 km, 32.9° (Epoch: 13 August)

Date Brightness Start Highest point End Pass type
(mag) Time Alt. Az. Time Alt. Az. Time Alt. Az.
14 Aug - 00:29:30 10° WSW 00:37:19 18° SSW 00:47:16 10° S visible
14 Aug - 16:55:52 10° SSE 16:57:38 12° SE 16:59:39 10° SE daylight
14 Aug - 19:04:12 10° SW 19:09:23 30° SSE 19:17:26 10° ESE daylight
14 Aug - 21:15:32 10° WSW 21:22:33 33° S 21:33:46 10° SE visible
14 Aug - 23:29:00 10° WSW 23:36:49 22° SSW 23:47:35 10° SSE visible
15 Aug - 18:06:01 10° SSW 18:10:11 23° SSE 18:16:03 10° ESE daylight
15 Aug - 20:16:44 10° WSW 20:22:44 32° S 20:32:19 10° SE daylight
15 Aug - 22:29:16 10° WSW 22:36:32 25° SSW 22:47:08 10° SSE visible
16 Aug - 00:48:27 10° SW 00:51:04 11° SSW 00:53:52 10° SSW visible
16 Aug - 17:08:18 10° S 17:11:10 16° SSE 17:14:43 10° ESE daylight
16 Aug - 19:18:09 10° SW 19:23:13 29° S 19:31:00 10° ESE daylight
16 Aug - 21:30:00 10° WSW 21:36:29 26° SSW 21:46:17 10° SE visible
16 Aug - 23:45:20 10° SW 23:50:41 14° SSW 23:57:13 10° S visible
17 Aug - 18:19:46 10° SW 18:23:56 24° SSE 18:29:54 10° ESE daylight
17 Aug - 20:31:02 10° WSW 20:36:41 27° S 20:45:17 10° SE daylight
17 Aug - 22:44:41 10° WSW 22:50:27 17° SSW 22:58:04 10° SSE visible
18 Aug - 17:21:38 10° SSW 17:24:51 19° SSE 17:29:00 10° ESE daylight
18 Aug - 19:32:20 10° SW 19:37:08 26° S 19:44:19 10° SE daylight
18 Aug - 21:44:57 10° WSW 21:50:27 19° SSW 21:58:04 10° SSE visible
19 Aug - 16:24:00 10° S 16:25:54 13° SSE 16:28:01 10° SE daylight
19 Aug - 18:33:47 10° SW 18:37:49 24° S 18:43:31 10° SE daylight
19 Aug - 20:45:42 10° WSW 20:50:40 21° SSW 20:57:41 10° SSE visible
20 Aug - 17:35:23 10° SW 17:38:41 20° S 17:42:55 10° SE daylight
20 Aug - 19:46:46 10° SW 19:51:06 21° S 19:57:13 10° SE daylight
20 Aug - 22:01:19 10° SW 22:04:27 12° SSW 22:08:07 10° S visible
21 Aug - 16:37:11 10° SSW 16:39:39 15° SSE 16:42:29 10° SE daylight
21 Aug - 18:48:02 10° SW 18:51:46 20° S 18:56:47 10° SE daylight
21 Aug - 21:01:12 10° SW 21:04:41 14° SSW 21:09:01 10° S visible
22 Aug - 15:39:29 10° S 15:40:39 11° SSE 15:41:52 10° SE daylight
22 Aug - 17:49:26 10° SW 17:52:35 19° S 17:56:32 10° SE daylight
22 Aug - 20:01:47 10° SW 20:05:07 15° SSW 20:09:21 10° SSE daylight
23 Aug - 16:50:54 10° SSW 16:53:30 16° S 16:56:28 10° SE daylight
23 Aug - 19:02:44 10° SW 19:05:45 15° S 19:09:30 10° SSE daylight
